Time,TemperatureF,DewpointF,PressureIn,WindDirection,WindDirectionDegrees,WindSpeedMPH,WindSpeedGustMPH,Humidity,HourlyPrecipIn,Conditions,Clouds,dailyrainin,SoftwareType,DateUTC
2013-02-22 00:03:00,8.0,0.0,30.08,East,88,0.0,-999.0,70,-99.99,,,0.00,weatherlink.com 1.10,2013-02-22 07:03:00,
2013-02-22 00:18:00,6.9,0.0,30.09,East,88,0.0,-999.0,72,-99.99,,,0.00,weatherlink.com 1.10,2013-02-22 07:18:00,
2013-02-22 00:33:00,6.1,-1.0,30.08,East,88,0.0,-999.0,74,-99.99,,,0.00,weatherlink.com 1.10,2013-02-22 07:33:00,
2013-02-22 00:48:00,5.7,-1.0,30.09,East,88,0.0,-999.0,75,-99.99,,,0.00,weatherlink.com 1.10,2013-02-22 07:48:00,
2013-02-22 01:10:00,5.6,-1.0,30.09,East,88,0.0,-999.0,75,-99.99,,,0.00,weatherlink.com 1.10,2013-02-22 08:10:00,
2013-02-22 01:18:00,5.4,-1.0,30.09,East,88,0.0,-999.0,75,-99.99,,,0.00,weatherlink.com 1.10,2013-02-22 08:18:00,
2013-02-22 01:33:00,4.7,-2.0,30.09,East,88,0.0,-999.0,73,-99.99,,,0.00,weatherlink.com 1.10,2013-02-22 08:33:00,
2013-02-22 01:48:00,3.7,-3.0,30.09,East,88,0.0,-999.0,75,-99.99,,,0.00,weatherlink.com 1.10,2013-02-22 08:48:00,
2013-02-22 02:03:00,3.5,-2.0,30.09,East,88,2.0,-999.0,78,-99.99,,,0.00,weatherlink.com 1.10,2013-02-22 09:03:00,
2013-02-22 02:18:00,6.4,0.0,30.09,East,89,0.0,-999.0,74,-99.99,,,0.00,weatherlink.com 1.10,2013-02-22 09:18:00,
2013-02-22 02:33:00,6.2,-1.0,30.09,East,89,0.0,-999.0,72,-99.99,,,0.00,weatherlink.com 1.10,2013-02-22 09:33:00,
2013-02-22 02:48:00,5.1,-2.0,30.08,East,89,0.0,-999.0,73,-99.99,,,0.00,weatherlink.com 1.10,2013-02-22 09:48:00,
2013-02-22 03:03:00,5.6,-1.0,30.08,East,89,1.0,-999.0,75,-99.99,,,0.00,weatherlink.com 1.10,2013-02-22 10:03:00,
2013-02-22 03:18:00,6.3,-1.0,30.08,East,94,0.0,-999.0,73,-99.99,,,0.00,weatherlink.com 1.10,2013-02-22 10:18:00,
2013-02-22 03:33:00,6.4,-1.0,30.09,ESE,106,0.0,-999.0,72,-99.99,,,0.00,weatherlink.com 1.10,2013-02-22 10:33:00,
2013-02-22 03:48:00,5.7,-2.0,30.09,ESE,106,1.0,-999.0,72,-99.99,,,0.00,weatherlink.com 1.10,2013-02-22 10:48:00,
2013-02-22 04:17:00,4.9,-2.0,30.10,WSW,256,0.0,-999.0,73,-99.99,,,0.00,weatherlink.com 1.10,2013-02-22 11:17:00,
2013-02-22 04:33:00,4.2,-2.0,30.09,WSW,256,0.0,-999.0,74,-99.99,,,0.00,weatherlink.com 1.10,2013-02-22 11:33:00,
2013-02-22 04:48:00,3.9,-3.0,30.10,SE,128,0.0,-999.0,74,-99.99,,,0.00,weatherlink.com 1.10,2013-02-22 11:48:00,
2013-02-22 05:11:00,3.5,-3.0,30.12,SE,135,0.0,-999.0,74,-99.99,,,0.00,weatherlink.com 1.10,2013-02-22 12:11:00,
2013-02-22 05:18:00,3.2,-3.0,30.12,SSW,201,0.0,-999.0,74,-99.99,,,0.00,weatherlink.com 1.10,2013-02-22 12:18:00,
2013-02-22 05:33:00,3.3,-3.0,30.13,SSW,200,1.0,-999.0,75,-99.99,,,0.00,weatherlink.com 1.10,2013-02-22 12:33:00,
2013-02-22 05:48:00,3.3,-3.0,30.14,SSW,200,0.0,-999.0,74,-99.99,,,0.00,weatherlink.com 1.10,2013-02-22 12:48:00,
2013-02-22 06:13:00,2.0,-4.0,30.14,SSW,200,0.0,-999.0,75,-99.99,,,0.00,weatherlink.com 1.10,2013-02-22 13:13:00,
2013-02-22 06:18:00,1.9,-5.0,30.14,SSW,200,0.0,-999.0,74,-99.99,,,0.00,weatherlink.com 1.10,2013-02-22 13:18:00,
2013-02-22 06:33:00,1.1,-5.0,30.14,ENE,78,0.0,-999.0,75,-99.99,,,0.00,weatherlink.com 1.10,2013-02-22 13:33:00,
2013-02-22 06:48:00,0.8,-5.0,30.14,ENE,78,0.0,-999.0,76,-99.99,,,0.00,weatherlink.com 1.10,2013-02-22 13:48:00,
2013-02-22 07:03:00,0.3,-6.0,30.14,ENE,78,0.0,-999.0,75,-99.99,,,0.00,weatherlink.com 1.10,2013-02-22 14:03:00,
2013-02-22 07:18:00,-0.2,-6.0,30.15,ENE,78,0.0,-999.0,75,-99.99,,,0.00,weatherlink.com 1.10,2013-02-22 14:18:00,
2013-02-22 07:33:00,0.2,-5.0,30.16,ENE,78,0.0,-999.0,80,-99.99,,,0.00,weatherlink.com 1.10,2013-02-22 14:33:00,
2013-02-22 07:48:00,2.8,-2.0,30.17,SW,232,0.0,-999.0,80,-99.99,,,0.00,weatherlink.com 1.10,2013-02-22 14:48:00,
2013-02-22 08:03:00,7.8,1.0,30.18,NE,45,1.0,-999.0,72,-99.99,,,0.00,weatherlink.com 1.10,2013-02-22 15:03:00,
2013-02-22 08:18:00,9.9,0.0,30.18,East,88,0.0,-999.0,65,-99.99,,,0.00,weatherlink.com 1.10,2013-02-22 15:18:00,
2013-02-22 08:33:00,10.7,1.0,30.19,East,88,1.0,-999.0,64,-99.99,,,0.00,weatherlink.com 1.10,2013-02-22 15:33:00,
2013-02-22 08:48:00,12.2,1.0,30.19,East,88,1.0,-999.0,60,-99.99,,,0.00,weatherlink.com 1.10,2013-02-22 15:48:00,
2013-02-22 09:03:00,14.4,1.0,30.20,ENE,58,4.0,-999.0,56,-99.99,,,0.00,weatherlink.com 1.10,2013-02-22 16:03:00,
2013-02-22 09:18:00,15.1,1.0,30.20,SSW,192,1.0,-999.0,54,-99.99,,,0.00,weatherlink.com 1.10,2013-02-22 16:18:00,
2013-02-22 09:33:00,15.3,1.0,30.19,ENE,76,0.0,-999.0,53,-99.99,,,0.00,weatherlink.com 1.10,2013-02-22 16:33:00,
2013-02-22 09:48:00,14.9,1.0,30.20,ENE,67,0.0,-999.0,53,-99.99,,,0.00,weatherlink.com 1.10,2013-02-22 16:48:00,
2013-02-22 10:03:00,15.5,1.0,30.21,ENE,74,2.0,-999.0,52,-99.99,,,0.00,weatherlink.com 1.10,2013-02-22 17:03:00,
2013-02-22 10:18:00,16.5,0.0,30.20,NE,51,1.0,-999.0,49,-99.99,,,0.00,weatherlink.com 1.10,2013-02-22 17:18:00,
2013-02-22 10:33:00,16.6,1.0,30.20,ENE,58,1.0,-999.0,50,-99.99,,,0.00,weatherlink.com 1.10,2013-02-22 17:33:00,
2013-02-22 10:48:00,17.4,0.0,30.20,East,101,1.0,-999.0,47,-99.99,,,0.00,weatherlink.com 1.10,2013-02-22 17:48:00,
2013-02-22 11:08:00,18.1,0.0,30.20,ENE,78,0.0,-999.0,46,-99.99,,,0.00,weatherlink.com 1.10,2013-02-22 18:08:00,
2013-02-22 11:18:00,18.9,2.0,30.21,NE,46,0.0,-999.0,48,-99.99,,,0.00,weatherlink.com 1.10,2013-02-22 18:18:00,
2013-02-22 11:33:00,18.7,1.0,30.21,SSW,208,0.0,-999.0,46,-99.99,,,0.00,weatherlink.com 1.10,2013-02-22 18:33:00,
2013-02-22 11:48:00,18.5,5.0,30.21,ENE,73,2.0,-999.0,57,-99.99,,,0.00,weatherlink.com 1.10,2013-02-22 18:48:00,
2013-02-22 12:17:00,17.1,4.0,30.21,ENE,61,1.0,-999.0,57,-99.99,,,0.00,weatherlink.com 1.10,2013-02-22 19:17:00,
2013-02-22 12:33:00,17.6,3.0,30.19,ENE,61,0.0,-999.0,54,-99.99,,,0.00,weatherlink.com 1.10,2013-02-22 19:33:00,
2013-02-22 12:48:00,18.4,4.0,30.18,WNW,297,0.0,-999.0,54,-99.99,,,0.00,weatherlink.com 1.10,2013-02-22 19:48:00,
2013-02-22 13:16:00,16.8,8.0,30.20,SSW,195,0.0,-999.0,67,-99.99,,,0.00,weatherlink.com 1.10,2013-02-22 20:16:00,
2013-02-22 13:33:00,16.3,5.0,30.18,WSW,240,0.0,-999.0,61,-99.99,,,0.00,weatherlink.com 1.10,2013-02-22 20:33:00,
2013-02-22 13:48:00,17.3,7.0,30.18,SSE,164,1.0,-999.0,64,-99.99,,,0.00,weatherlink.com 1.10,2013-02-22 20:48:00,
2013-02-22 14:03:00,16.8,4.0,30.18,SSW,208,0.0,-999.0,57,-99.99,,,0.00,weatherlink.com 1.10,2013-02-22 21:03:00,
2013-02-22 14:18:00,18.4,5.0,30.16,West,265,5.0,-999.0,55,-99.99,,,0.00,weatherlink.com 1.10,2013-02-22 21:18:00,
2013-02-22 14:33:00,17.4,6.0,30.19,SE,142,1.0,-999.0,62,-99.99,,,0.00,weatherlink.com 1.10,2013-02-22 21:33:00,
2013-02-22 14:48:00,16.5,4.0,30.19,South,188,1.0,-999.0,57,-99.99,,,0.00,weatherlink.com 1.10,2013-02-22 21:48:00,
2013-02-22 15:04:00,16.7,2.0,30.18,ESE,108,1.0,-999.0,53,-99.99,,,0.00,weatherlink.com 1.10,2013-02-22 22:04:00,
2013-02-22 15:18:00,15.8,3.0,30.19,SSW,204,2.0,-999.0,57,-99.99,,,0.00,weatherlink.com 1.10,2013-02-22 22:18:00,
2013-02-22 15:33:00,16.1,2.0,30.19,East,98,4.0,-999.0,54,-99.99,,,0.00,weatherlink.com 1.10,2013-02-22 22:33:00,
2013-02-22 15:48:00,15.8,1.0,30.19,ESE,113,1.0,-999.0,53,-99.99,,,0.00,weatherlink.com 1.10,2013-02-22 22:48:00,
2013-02-22 16:05:00,14.9,1.0,30.19,East,91,0.0,-999.0,53,-99.99,,,0.00,weatherlink.com 1.10,2013-02-22 23:05:00,
2013-02-22 16:18:00,14.3,1.0,30.18,ESE,116,4.0,-999.0,55,-99.99,,,0.00,weatherlink.com 1.10,2013-02-22 23:18:00,
2013-02-22 16:33:00,13.6,0.0,30.20,SE,138,1.0,-999.0,55,-99.99,,,0.00,weatherlink.com 1.10,2013-02-22 23:33:00,
2013-02-22 16:48:00,13.0,0.0,30.20,West,265,1.0,-999.0,56,-99.99,,,0.00,weatherlink.com 1.10,2013-02-22 23:48:00,
2013-02-22 17:16:00,11.5,-1.0,30.21,South,184,2.0,-999.0,58,-99.99,,,0.00,weatherlink.com 1.10,2013-02-23 00:16:00,
2013-02-22 17:33:00,10.5,-1.0,30.21,SSE,161,0.0,-999.0,61,-99.99,,,0.00,weatherlink.com 1.10,2013-02-23 00:33:00,
2013-02-22 17:48:00,9.9,-1.0,30.22,SSE,165,0.0,-999.0,62,-99.99,,,0.00,weatherlink.com 1.10,2013-02-23 00:48:00,
2013-02-22 18:03:00,9.2,-2.0,30.22,West,262,1.0,-999.0,62,-99.99,,,0.00,weatherlink.com 1.10,2013-02-23 01:03:00,
2013-02-22 18:18:00,8.6,-2.0,30.24,ESE,117,1.0,-999.0,63,-99.99,,,0.00,weatherlink.com 1.10,2013-02-23 01:18:00,
2013-02-22 18:33:00,8.1,-2.0,30.25,East,97,2.0,-999.0,63,-99.99,,,0.00,weatherlink.com 1.10,2013-02-23 01:33:00,
2013-02-22 18:48:00,7.8,-2.0,30.25,ESE,103,2.0,-999.0,64,-99.99,,,0.00,weatherlink.com 1.10,2013-02-23 01:48:00,
2013-02-22 19:03:00,7.5,-2.0,30.26,ESE,105,1.0,-999.0,64,-99.99,,,0.00,weatherlink.com 1.10,2013-02-23 02:03:00,
2013-02-22 19:18:00,6.9,-3.0,30.26,ESE,105,0.0,-999.0,65,-99.99,,,0.00,weatherlink.com 1.10,2013-02-23 02:18:00,
2013-02-22 19:33:00,6.7,-2.0,30.27,ENE,69,0.0,-999.0,68,-99.99,,,0.00,weatherlink.com 1.10,2013-02-23 02:33:00,
2013-02-22 19:48:00,6.8,-2.0,30.27,NNE,20,4.0,-999.0,66,-99.99,,,0.00,weatherlink.com 1.10,2013-02-23 02:48:00,
2013-02-22 20:16:00,6.3,-3.0,30.27,NE,41,0.0,-999.0,66,-99.99,,,0.00,weatherlink.com 1.10,2013-02-23 03:16:00,
2013-02-22 20:33:00,5.7,-3.0,30.26,NE,39,5.0,-999.0,67,-99.99,,,0.00,weatherlink.com 1.10,2013-02-23 03:33:00,
2013-02-22 20:48:00,5.7,-3.0,30.26,NE,42,5.0,-999.0,66,-99.99,,,0.00,weatherlink.com 1.10,2013-02-23 03:48:00,
2013-02-22 21:04:00,5.5,-4.0,30.26,East,83,0.0,-999.0,65,-99.99,,,0.00,weatherlink.com 1.10,2013-02-23 04:04:00,
2013-02-22 21:18:00,5.4,-4.0,30.26,East,98,2.0,-999.0,65,-99.99,,,0.00,weatherlink.com 1.10,2013-02-23 04:18:00,
2013-02-22 21:33:00,5.3,-5.0,30.26,East,94,1.0,-999.0,64,-99.99,,,0.00,weatherlink.com 1.10,2013-02-23 04:33:00,
2013-02-22 21:48:00,5.2,-5.0,30.27,ESE,118,1.0,-999.0,64,-99.99,,,0.00,weatherlink.com 1.10,2013-02-23 04:48:00,
2013-02-22 22:03:00,5.0,-5.0,30.26,East,98,1.0,-999.0,64,-99.99,,,0.00,weatherlink.com 1.10,2013-02-23 05:03:00,
2013-02-22 22:18:00,4.6,-6.0,30.27,South,173,5.0,-999.0,63,-99.99,,,0.00,weatherlink.com 1.10,2013-02-23 05:18:00,
2013-02-22 22:33:00,5.5,-6.0,30.26,SW,233,4.0,-999.0,59,-99.99,,,0.00,weatherlink.com 1.10,2013-02-23 05:33:00,
2013-02-22 22:48:00,5.6,-6.0,30.27,WSW,245,5.0,-999.0,59,-99.99,,,0.00,weatherlink.com 1.10,2013-02-23 05:48:00,
2013-02-22 23:16:00,5.2,-7.0,30.26,WNW,284,3.0,-999.0,58,-99.99,,,0.00,weatherlink.com 1.10,2013-02-23 06:16:00,
2013-02-22 23:33:00,4.9,-7.0,30.25,SW,225,1.0,-999.0,58,-99.99,,,0.00,weatherlink.com 1.10,2013-02-23 06:33:00,
2013-02-22 23:48:00,5.1,-7.0,30.26,SSW,209,2.0,-999.0,58,-99.99,,,0.00,weatherlink.com 1.10,2013-02-23 06:48:00,